Regional Weather Roundup
Issued by NWS

Home | Current Version | Previous Version | Graphics & Text | Print | Product List | Glossary On
Versions: 1 2 3 4 5 6 7 8 9 10 11 12 13 14 15 16 17 18 19 20 21 22 23 24 25 26 27 28 29 30 31 32 33 34 35 36 37 38 39 40 41 42 43 44 45 46 47 48 49 50
000
ASUS43 KOAX 241402
RWRNE

WEATHER ROUNDUP FOR NEBRASKA
NATIONAL WEATHER SERVICE OMAHA NE
900 AM CDT MON JUL 24 2017

NOTES: SATELLITE DATA IS BEING USED TO AUGMENT CLOUD COVER ABOVE
       12000 FEET.
       "FAIR" INDICATES FEW OR NO CLOUDS BELOW 12,000 FEET WITH NO
       SIGNIFICANT WEATHER AND/OR OBSTRUCTIONS TO VISIBILITY.


NEZ001>004-019>022-054>056-241500-
NEBRASKA PANHANDLE

CITY           SKY/WX    TMP DP  RH WIND       PRES   REMARKS
SCOTTSBLUFF    SUNNY     80  58  46 SE5       29.98S
ALLIANCE       SUNNY     78  60  53 S20G25    29.98F
CHADRON        CLOUDY    81  56  42 S15       29.91F
GORDON         FAIR      76  61  58 SW5       29.97S
KIMBALL        SUNNY     74  61  64 SW13      30.07S
SIDNEY         SUNNY     77  60  55 SW21G30   30.05S
$$

NEZ057>060-069>072-079>082-241500-
SOUTHWEST NEBRASKA

CITY           SKY/WX    TMP DP  RH WIND       PRES   REMARKS
NORTH PLATTE   SUNNY     72  66  81 SE8       30.02S
IMPERIAL       SUNNY     77  60  55 S9        30.04R
LEXINGTON      SUNNY     73  64  73 SE8       30.03F
MCCOOK         SUNNY     70  66  87 SE3       30.03S FOG
OGALLALA       SUNNY     72  60  65 S5        30.02F
$$

NEZ005>010-023>029-035>040-094-241500-
NORTH CENTRAL NEBRASKA

CITY           SKY/WX    TMP DP  RH WIND       PRES   REMARKS
VALENTINE      SUNNY     75  60  59 S14       29.97F
AINSWORTH      SUNNY     73  61  65 S20G25    29.99S
BROKEN BOW     SUNNY     73  61  65 S12       30.03S
O`NEILL        SUNNY     70  63  79 S12       30.02F
ORD            SUNNY     71  59  65 S10       30.02S
THEDFORD       SUNNY     74  64  71 S10       30.02S
$$

NEZ041-046>049-061>064-073>077-083>087-241500-
SOUTH CENTRAL NEBRASKA

CITY           SKY/WX    TMP DP  RH WIND       PRES   REMARKS
GRAND ISLAND   SUNNY     71  64  78 SE13      30.04S
AURORA         SUNNY     69  65  87 SE9       30.04F
HASTINGS       SUNNY     72  61  68 SE14      30.05S
HEBRON         SUNNY     74  64  70 SE8       30.03S
HOLDREGE       SUNNY     71  63  76 SE10      30.04S
KEARNEY        SUNNY     72  63  73 S14       30.04S
YORK           SUNNY     68  64  88 S9        30.05S
$$

NEZ011>018-030>034-042>045-241500-
NORTHEAST NEBRASKA

CITY           SKY/WX    TMP DP  RH WIND       PRES   REMARKS
NORFOLK        MOSUNNY   69  59  70 SE10      30.03F
ALBION         SUNNY     69  62  80 SE8       30.04S
BLAIR          SUNNY     70  63  76 E7        30.05S
COLUMBUS       SUNNY     69  62  78 SE8       30.05S
FREMONT        SUNNY     69  60  72 SE6       30.05S
TEKAMAH        SUNNY     69  61  75 SE3       30.04S
WAYNE          MOSUNNY   69  65  87 SE8       30.05S
$$

NEZ050>053-065>068-078-088>093-241500-
SOUTHEAST NEBRASKA

CITY           SKY/WX    TMP DP  RH WIND       PRES   REMARKS
LINCOLN        SUNNY     72  62  71 SE8       30.05R
OMAHA EPPLEY   MOSUNNY   72  61  68 E6        30.04S
BEATRICE       SUNNY     73  64  74 SE7       30.04S
FALLS CITY     SUNNY     72  65  78 E5        30.03R
NEBRASKA CITY  SUNNY     71  66  85 E3        30.04S
PLATTSMOUTH    SUNNY     70  62  76 E5        30.05S
$$

NEZ044-045-051>053-067-241500-
OMAHA AREA

CITY           SKY/WX    TMP DP  RH WIND       PRES   REMARKS
OMAHA EPPLEY   MOSUNNY   72  61  68 E6        30.04S
BLAIR          SUNNY     70  63  76 E7        30.05S
FREMONT        SUNNY     69  60  72 SE6       30.05S
MILLARD        MOSUNNY   75  62  65 SE7       30.04S
PLATTSMOUTH    SUNNY     70  62  76 E5        30.05S
WAHOO          FAIR      69  63  80 SE5       30.05R
$$



USA.gov is the U.S. government's official web portal to all federal, state and local government web resources and services.